Location: Bruneau Dunes Observatory
(42.9024°N, 115.6902°W)
Time: 16:46:01
(UTC-07:00)

Daily predictions for brighter satellites

Satellite Brightness Start Highest point End
(mag) Time Altitude Azimuth Time Altitude Azimuth Time Altitude Azimuth
Cosmos 2154 Rocket 4.1 17:34:12 10° N 17:40:27 89° E 17:46:43 10° S
Cosmos 158 Rocket 4.2 17:36:48 10° NNW 17:42:06 55° ENE 17:47:15 10° SE
Cosmos 1975 Rocket 3.3 17:39:17 10° SSE 17:43:25 48° E 17:47:35 10° NNE
Cosmos 1048 Rocket 4.1 17:40:43 10° NNW 17:46:03 85° ENE 17:51:25 10° SSE
Cosmos 1844 Rocket 3.2 17:41:00 10° S 17:46:12 41° ESE 17:51:27 10° NE
CZ-2C R/B 2.6 17:43:03 10° SSE 17:47:51 52° ENE 17:52:48 10° N
Meteor 1-27 Rocket 4.2 17:43:14 10° SSW 17:49:04 71° W 17:54:50 10° N
GEOS 3 Rocket 4.3 17:45:12 10° ESE 17:49:40 32° NE 17:54:09 10° NNW
CZ-2C R/B 4.0 17:45:24 10° N 17:49:49 70° WNW 17:54:16 10° SSW
Cosmos 1238 Rocket 3.7 17:48:57 10° SE 17:50:55 17° E 17:52:54 10° NE
Cosmos 1975 4.4 17:49:03 10° NNE 17:51:41 16° ENE 17:54:17 10° ESE
Cosmos 1844 4.3 17:51:38 10° S 17:56:42 37° ESE 18:01:47 10° NE
AQUARIUS 4.2 17:53:51 10° SSE 17:58:17 63° ENE 18:02:44 10° N
MOS 1 4.3 17:58:09 10° SSE 18:03:48 80° ENE 18:09:28 10° NNW
CORIOLIS 4.1 17:59:42 10° SSE 18:05:04 67° ENE 18:10:27 10° N
SMAP 3.0 18:02:42 10° SSE 18:07:20 78° ENE 18:12:01 10° N
PAYLOAD A 4.3 18:02:45 10° S 18:07:30 69° WSW 18:12:27 10° NNW
YAOGAN 1 2.5 18:03:12 10° SSE 18:07:30 72° ENE 18:11:50 10° N
SPOT 3 Rocket 3.5 18:02:28 10° SSE 18:07:40 83° ENE 18:12:52 10° NNW
Abrixas 3.8 18:11:46 10° WNW 18:14:22 26° N 18:15:44 18° NE
Cosmos 2278 Rocket 2.9 18:09:31 10° SSE 18:14:27 32° ESE 18:18:28 14° NE
COSMOS 2406 3.5 18:09:40 10° NNW 18:15:23 74° WSW 18:21:06 10° SSE
OTV 4 2.8 18:15:53 10° WSW 18:18:14 21° SSW 18:20:34 10° SE
SL-8 Rocket 3.9 18:12:41 10° N 18:18:54 82° E 18:25:03 10° S
Cosmos 1484 Rocket 3.0 18:19:14 10° SE 18:22:48 42° ENE 18:26:21 10° N
IDEFIX/ARIANE 42P 2.8 18:18:57 10° S 18:24:09 76° WSW 18:29:22 10° NNW
USA 32 4.0 18:18:57 10° S 18:24:10 81° E 18:29:25 10° N
Meteor 1-5 Rocket 4.5 18:20:23 10° NNW 18:25:46 71° W 18:31:17 10° S
SKYMED 2 4.0 18:23:26 11° NNE 18:27:21 41° E 18:31:27 10° S
Cosmos 2366 rocket 4.0 18:22:39 10° N 18:29:02 73° E 18:35:20 10° SSE
Cosmos 1455 Rocket 3.0 18:24:48 10° N 18:29:11 65° E 18:33:34 10° SSE
BREEZE M DEB (TANK) 3.8 18:21:41 10° SW 18:30:35 36° SSE 18:32:37 22° E
Cosmos 2218 Rocket 4.0 18:24:38 10° N 18:30:59 85° E 18:37:13 10° S
Meteor 2-19 Rocket 4.4 18:26:12 10° N 18:32:18 88° W 18:38:21 10° S
Cosmos 1959 Rocket 4.5 18:28:40 10° N 18:34:52 90° W 18:41:07 10° S
USA 234 3.8 18:32:50 14° NE 18:38:14 50° NNW 18:44:29 10° WSW
Cosmos 2082 Rocket 3.1 18:33:37 10° N 18:38:26 27° NE 18:39:41 25° ENE
Cosmos 1833 Rocket 3.6 18:39:33 10° N 18:44:16 26° NE 18:44:32 26° ENE
Thor Agena Rocket 4.4 18:40:08 10° N 18:45:09 51° WNW 18:50:13 10° SW
SL-8 R/B 4.2 18:40:47 10° SW 18:45:19 45° SE 18:47:02 31° E
Cosmos 1500 3.3 18:42:35 10° N 18:46:18 49° E 18:50:02 10° SSE
Cosmos 494 Rocket 3.9 18:41:15 10° NNW 18:46:31 84° ENE 18:51:46 10° SSE
BREEZE M DEB (TANK) 3.5 18:44:12 10° NW 18:47:26 45° NNE 18:50:35 27° ENE
Okean 1 3.2 18:43:33 10° S 18:47:33 67° E 18:50:17 20° NNE
Meteor 1-28 Rocket 3.6 18:50:05 40° ESE 18:50:05 40° ESE 18:53:35 10° S
NOSS 3-3 (A) 4.0 18:47:38 10° SSW 18:53:42 60° ESE 18:57:10 28° NE
NOSS 3-3 (C) 4.1 18:47:45 10° SSW 18:53:48 60° ESE 18:57:14 28° NE
Cosmos 1809 Rocket 4.4 18:47:47 10° N 18:53:56 64° E 19:00:00 10° SSE
ISS -2.8 18:50:45 10° WSW 18:53:58 49° NNW 18:54:29 44° N
Cosmos 375 4.4 18:51:41 10° NNW 18:56:13 60° NE 18:57:07 46° E
NOAA 12 4.1 18:52:32 10° SSE 18:57:40 54° ENE 19:02:48 10° N
METEOR-M 4.3 18:53:39 10° SE 18:58:44 47° ENE 19:03:51 10° N
Cosmos 2251 Rocket 4.0 18:55:15 10° NNW 19:00:33 64° WSW 19:05:48 10° S
ATLAS 2AS CENTAUR R/B 3.2 18:53:50 10° NW 19:01:54 74° WSW 19:09:24 10° SSE
SL-27 R/B 4.2 18:59:08 10° NW 19:02:31 35° WSW 19:05:51 10° S
Cosmos 1821 Rocket 4.2 18:58:39 10° N 19:04:26 42° ENE 19:10:10 10° SSE
Tiangong 1 3.7 19:05:28 10° S 19:05:52 12° S 19:05:52 12° S
Cosmos 1812 3.7 19:03:42 10° SSW 19:07:25 46° W 19:10:49 12° N
Cosmos 1346 Rocket 2.5 19:04:25 10° S 19:08:19 73° E 19:08:21 73° E
COSMO-SKYMED 1 3.1 19:12:01 16° N 19:15:26 58° WNW 19:19:41 10° SSW
CZ-3B DEB 2.7 19:15:10 10° WSW 19:19:26 68° NNW 19:24:12 30° NE
Nadezhda 3 Rocket 3.9 19:20:04 10° S 19:26:15 89° W 19:32:34 10° N
GEOS 3 Rocket 4.3 19:22:32 10° SSE 19:27:31 52° WSW 19:32:31 10° NW
Cosmos 1975 4.2 19:24:34 10° NNW 19:28:24 39° W 19:32:09 10° SSW
SL-24 R/B - RUBIN 2 4.5 19:22:29 10° SSW 19:28:41 64° ESE 19:29:43 56° ENE
Cosmos 1844 Rocket 4.3 19:25:17 10° WSW 19:30:12 31° NW 19:34:31 13° N
Cosmos 2297 3.5 19:36:03 10° SSW 19:41:27 78° SSE 19:41:27 78° SSE
Meteor 1-19 Rocket 4.3 19:48:01 10° SSW 19:53:47 75° W 19:54:40 63° NNW
Cosmos 2278 Rocket 3.4 19:53:09 10° SW 19:58:24 39° WNW 20:00:22 30° NNW
Cosmos 2082 Rocket 3.2 20:17:20 10° NW 20:21:38 43° WNW 20:21:38 43° WNW
Cosmos 1833 Rocket 4.1 20:23:00 10° NW 20:26:18 33° NW 20:26:18 33° NW
ATLAS 3B CENTAUR R/B 4.3 20:28:21 10° WSW 20:37:24 25° SSW 20:37:43 25° SSW
